Regional Weather Roundup
Issued by NWS

Home | Current Version | Previous Version | Graphics & Text | Print | Product List | Glossary On
Versions: 1 2 3 4 5 6 7 8 9 10 11 12 13 14 15 16 17 18 19 20 21 22 23 24 25 26 27 28 29 30 31 32 33 34 35 36 37 38 39 40 41 42 43 44 45 46 47 48 49 50
000
ASUS43 KOAX 011410
RWRNE

WEATHER ROUNDUP FOR NEBRASKA
NATIONAL WEATHER SERVICE OMAHA NE
900 AM CDT SAT AUG 01 2015

NOTES: SATELLITE DATA IS BEING USED TO AUGMENT CLOUD COVER ABOVE
       12000 FEET.
       "FAIR" INDICATES FEW OR NO CLOUDS BELOW 12,000 FEET WITH NO
       SIGNIFICANT WEATHER AND/OR OBSTRUCTIONS TO VISIBILITY.

  * THESE STATIONS DO NOT REPORT WEATHER SUCH AS RAIN...SNOW OR FOG.

NEZ001>004-019>022-054>056-011500-
NEBRASKA PANHANDLE

CITY           SKY/WX    TMP DP  RH WIND       PRES   REMARKS
SCOTTSBLUFF    SUNNY     74  58  57 CALM      30.10R
ALLIANCE       SUNNY     69  60  73 CALM      30.08F
CHADRON        SUNNY     70  55  59 E6        30.05F
KIMBALL        SUNNY     74  60  61 SW13      30.14F
SIDNEY         SUNNY     75  62  64 SW18      30.13F
$$

NEZ057>060-069>072-079>082-011500-
SOUTHWEST NEBRASKA

CITY           SKY/WX    TMP DP  RH WIND       PRES   REMARKS
NORTH PLATTE   SUNNY     71  60  68 SE16      30.13R
IMPERIAL       SUNNY     73  60  63 SW6       30.11F
LEXINGTON      MOSUNNY   70  62  75 E21G29    30.16R
MCCOOK         SUNNY     76  62  62 SW10      30.09S
OGALLALA       SUNNY     69  63  80 SW5       30.10S
$$

NEZ005>010-023>029-035>040-094-011500-
NORTH CENTRAL NEBRASKA

CITY           SKY/WX    TMP DP  RH WIND       PRES   REMARKS
VALENTINE      LGT RAIN  66  59  78 SE12      30.09R
AINSWORTH      PTSUNNY   68  56  63 S18       30.09F
BROKEN BOW     MOSUNNY   71  57  61 SE18G24   30.15R
O`NEILL        CLOUDY    69  59  71 S14       30.06F
ORD            CLOUDY    64  59  83 SE12      30.13R
THEDFORD       SUNNY     73  56  55 SE18      30.12F
$$

NEZ041-046>049-061>064-073>077-083>087-011500-
SOUTH CENTRAL NEBRASKA

CITY           SKY/WX    TMP DP  RH WIND       PRES   REMARKS
GRAND ISLAND   CLOUDY    63  60  90 NE14      30.17F
AURORA         LGT RAIN  65  64  96 N16       30.15F
HASTINGS       PTSUNNY   68  59  73 NE9G20    30.15F
HEBRON         SUNNY     75  62  64 CALM      30.10R
HOLDREGE       SUNNY     69  60  74 NE15G24   30.16S
KEARNEY *      MOSUNNY   70  57  64 NE17      30.15F
YORK           LGT RAIN  66  63  88 N13G18    30.18R
$$

NEZ011>018-030>034-042>045-011500-
NORTHEAST NEBRASKA

CITY           SKY/WX    TMP DP  RH WIND       PRES   REMARKS
NORFOLK        CLOUDY    71  61  70 SW16      30.05R
ALBION         CLOUDY    64  61  88 S17       30.09F
BLAIR          CLOUDY    67  62  83 W7        30.08S
COLUMBUS *     CLOUDY    66  59  77 SW9       30.14F
FREMONT        LGT RAIN  69  64  83 W15G21    30.09F
TEKAMAH        CLOUDY    67  64  90 S6        30.05S
WAYNE          CLOUDY    69  64  86 CALM      30.05S
$$

NEZ050>053-065>068-078-088>093-011500-
SOUTHEAST NEBRASKA

CITY           SKY/WX    TMP DP  RH WIND       PRES   REMARKS
LINCOLN        CLOUDY    74  62  66 NW18G26   30.10R
OMAHA EPPLEY   CLOUDY    69  67  93 CALM      30.08R
BEATRICE       PTSUNNY   73  65  77 N8        30.10R
FALLS CITY     MOSUNNY   75  71  87 SW5       30.05S
NEBRASKA CITY  CLOUDY    71  70  98 CALM      30.07R
PLATTSMOUTH    CLOUDY    69  67  96 NW6       30.08R
$$

NEZ044-045-051>053-067-011500-
OMAHA AREA

CITY           SKY/WX    TMP DP  RH WIND       PRES   REMARKS
OMAHA EPPLEY   CLOUDY    69  67  93 CALM      30.08R
BLAIR          CLOUDY    67  62  83 W7        30.08S
FREMONT        LGT RAIN  69  64  83 W15G21    30.09F
MILLARD        CLOUDY    71  66  84 NW9       30.09R
OFFUTT AFB     CLOUDY    69  69 100 NW6       30.08R
PLATTSMOUTH    CLOUDY    69  67  96 NW6       30.08R
WAHOO          FAIR      69  64  81 NW14G20   30.11R
$$


USA.gov is the U.S. government's official web portal to all federal, state and local government web resources and services.